Weather History for Peru, IL

Change the Weather History Date:

Friday, October 26, 2012

  Actual Average Record
Temperature  
Mean Temperature 41 °F -  
Max Temperature 49 °F 60 °F 83 °F (1963)
Min Temperature 34 °F 37 °F 23 °F (1979)
Degree Days  
Heating Degree Days 24    
Moisture  
Dew Point 31 °F    
Average Humidity 69    
Maximum Humidity 84    
Minimum Humidity 46    
Precipitation  
Precipitation 0.06 in - - ()
Sea Level Pressure  
Sea Level Pressure 30.29 in    
Wind  
Wind Speed 13 mph (NNW)    
Max Wind Speed 18 mph    
Max Gust Speed 31 mph    
Visibility 10 miles    
Events      
Averages and records for this station are not official NWS values.
T = Trace of Precipitation, MM = Missing Value Source: NWS Daily Summary

Daily Weather History Graph

Daily Weather History Graph

Search for Another Location

Airport:

Trip Planner

Search our weather history database for the weather conditions in past years. The results will help you decide how hot, cold, wet, or windy it might be!

Date:

Astronomy

Oct. 26, 2012 Rise Set
Actual Time 7:21 AM CDT 5:58 PM CDT
Civil Twilight 6:53 AM CDT 6:27 PM CDT
Nautical Twilight 6:20 AM CDT 6:59 PM CDT
Astronomical Twilight 5:48 AM CDT 7:31 PM CDT
Moon 4:15 PM CDT (10/26) 4:16 AM CDT (10/26)
Length of Visible Light 11h 34m
Length of Day
10h 37m
Waxing Gibbous, 91% of the Moon is Illuminated
Oct 26
Waxing Gibbous
Oct 29
Full
Nov 6
Last Quarter
Nov 13
New
Nov 20
First Quarter

Hourly Weather History & Observations

Time (CDT) Temp. Windchill Dew Point Humidity Pressure Visibility Wind Dir Wind Speed Gust Speed Precip Events Conditions
12:15 AM 42.4 °F 34.1 °F 36.7 °F 80% 30.13 in 10.0 mi NNW 18.4 mph 31.1 mph N/A   Overcast
12:35 AM 42.8 °F 34.5 °F 35.6 °F 76% 30.15 in 10.0 mi NNW 18.4 mph 25.3 mph N/A   Overcast
12:55 AM 41.0 °F 32.5 °F 33.3 °F 74% 30.16 in 10.0 mi NW 17.3 mph 26.5 mph N/A   Mostly Cloudy
1:15 AM 39.2 °F 30.5 °F 33.8 °F 81% 30.17 in 10.0 mi NW 16.1 mph - N/A   Scattered Clouds
1:35 AM 39.6 °F 32.1 °F 33.1 °F 78% 30.17 in 10.0 mi NW 12.7 mph - N/A   Clear
1:55 AM 39.6 °F 31.3 °F 33.1 °F 78% 30.18 in 10.0 mi NW 15.0 mph 19.6 mph N/A   Clear
2:15 AM 39.0 °F 31.0 °F 32.4 °F 77% 30.18 in 10.0 mi NW 13.8 mph - N/A   Clear
2:35 AM 38.8 °F 30.4 °F 32.4 °F 78% 30.20 in 10.0 mi NW 15.0 mph 20.7 mph N/A   Scattered Clouds
2:55 AM 39.6 °F 31.3 °F 32.2 °F 75% 30.20 in 10.0 mi NNW 15.0 mph 21.9 mph N/A   Overcast
3:15 AM 39.7 °F 32.7 °F 32.4 °F 75% 30.21 in 10.0 mi NNW 11.5 mph - N/A   Overcast
3:35 AM 40.3 °F 33.4 °F 32.2 °F 73% 30.22 in 10.0 mi NNW 11.5 mph - N/A   Overcast
3:55 AM 40.5 °F 32.5 °F 32.0 °F 72% 30.23 in 10.0 mi NNW 15.0 mph 21.9 mph N/A   Overcast
4:15 AM 40.3 °F 32.2 °F 32.0 °F 72% 30.23 in 10.0 mi NNW 15.0 mph 19.6 mph N/A   Overcast
4:35 AM 40.1 °F 31.6 °F 31.8 °F 72% 30.23 in 10.0 mi NNW 16.1 mph 21.9 mph N/A   Overcast
4:55 AM 39.6 °F 33.5 °F 32.0 °F 74% 30.24 in 10.0 mi NW 9.2 mph - N/A   Overcast
5:15 AM 38.8 °F 33.2 °F 32.0 °F 76% 30.25 in 10.0 mi NNW 8.1 mph - N/A   Mostly Cloudy
5:35 AM 37.4 °F 30.8 °F 31.6 °F 80% 30.25 in 10.0 mi NW 9.2 mph - N/A   Scattered Clouds
5:55 AM 36.9 °F 30.1 °F 30.9 °F 79% 30.25 in 10.0 mi NW 9.2 mph - N/A   Clear
6:15 AM 36.3 °F 29.5 °F 30.9 °F 81% 30.26 in 10.0 mi NW 9.2 mph - N/A   Scattered Clouds
6:35 AM 35.4 °F 29.0 °F 30.4 °F 82% 30.27 in 10.0 mi NW 8.1 mph - N/A   Scattered Clouds
6:55 AM 34.5 °F 27.9 °F 30.2 °F 84% 30.28 in 10.0 mi NW 8.1 mph - N/A   Clear
7:15 AM 35.1 °F 27.9 °F 30.2 °F 82% 30.29 in 10.0 mi NW 9.2 mph - N/A   Clear
7:35 AM 34.7 °F 26.9 °F 30.2 °F 84% 30.30 in 10.0 mi NW 10.4 mph - N/A   Clear
7:55 AM 35.6 °F 27.5 °F 30.2 °F 81% 30.30 in 10.0 mi NW 11.5 mph - N/A   Clear
8:15 AM 36.1 °F 27.3 °F 30.9 °F 81% 30.31 in 10.0 mi NW 13.8 mph - N/A   Mostly Cloudy
8:35 AM 37.4 °F 28.5 °F 32.0 °F 81% 30.32 in 10.0 mi NW 15.0 mph - N/A   Scattered Clouds
8:55 AM 37.8 °F 28.3 °F 32.0 °F 80% 30.33 in 10.0 mi NW 17.3 mph - N/A   Clear
9:15 AM 39.6 °F 30.6 °F 32.2 °F 75% 30.34 in 10.0 mi NW 17.3 mph - N/A   Clear
9:35 AM 41.0 °F 33.1 °F 32.0 °F 70% 30.34 in 10.0 mi NNW 15.0 mph - N/A   Clear
9:55 AM 41.0 °F 32.2 °F 31.1 °F 68% 30.34 in 10.0 mi NNW 18.4 mph - N/A   Clear
10:15 AM 41.4 °F 33.3 °F 30.9 °F 66% 30.35 in 10.0 mi NNW 16.1 mph - N/A   Clear
10:35 AM 41.9 °F 35.4 °F 30.7 °F 65% 30.34 in 10.0 mi North 11.5 mph - N/A   Scattered Clouds
10:55 AM 42.4 °F 35.7 °F 30.2 °F 62% 30.34 in 10.0 mi NNW 12.7 mph - N/A   Scattered Clouds
11:15 AM 43.0 °F 36.4 °F 30.4 °F 61% 30.34 in 10.0 mi NNW 12.7 mph 18.4 mph N/A   Clear
11:35 AM 43.3 °F 36.1 °F 31.1 °F 62% 30.34 in 10.0 mi North 15.0 mph - N/A   Scattered Clouds
11:55 AM 43.9 °F 39.3 °F 31.1 °F 61% 30.34 in 10.0 mi North 8.1 mph - N/A   Scattered Clouds
12:15 PM 44.8 °F 38.7 °F 31.8 °F 60% 30.34 in 10.0 mi North 12.7 mph - N/A   Scattered Clouds
12:35 PM 45.0 °F 40.1 °F 31.5 °F 59% 30.33 in 10.0 mi North 9.2 mph - N/A   Scattered Clouds
12:55 PM 46.4 °F 41.5 °F 30.2 °F 53% 30.33 in 10.0 mi North 10.4 mph - N/A   Scattered Clouds
1:15 PM 46.0 °F 42.5 °F 29.8 °F 53% 30.33 in 10.0 mi NNE 6.9 mph 10.4 mph N/A   Clear
1:35 PM 46.8 °F - 29.8 °F 52% 30.32 in 10.0 mi North 9.2 mph - N/A   Clear
1:55 PM 46.6 °F - 29.8 °F 52% 30.31 in 10.0 mi NNE 6.9 mph - N/A   Clear
2:15 PM 48.2 °F - 30.2 °F 50% 30.31 in 10.0 mi North 11.5 mph - N/A   Clear
2:35 PM 48.2 °F - 29.1 °F 48% 30.31 in 10.0 mi North 10.4 mph - N/A   Clear
2:55 PM 48.4 °F - 29.1 °F 47% 30.30 in 10.0 mi NNW 9.2 mph - N/A   Clear
3:15 PM 48.7 °F - 28.8 °F 46% 30.30 in 10.0 mi NNW 8.1 mph - N/A   Clear
3:35 PM 48.7 °F - 29.1 °F 47% 30.30 in 10.0 mi NNW 10.4 mph - N/A   Clear
3:55 PM 48.6 °F - 28.9 °F 47% 30.30 in 10.0 mi NW 11.5 mph - N/A   Clear
4:15 PM 48.6 °F - 30.0 °F 49% 30.29 in 10.0 mi NNW 12.7 mph - N/A   Clear
4:35 PM 47.8 °F - 29.5 °F 49% 30.30 in 10.0 mi NNW 13.8 mph - N/A   Clear
4:55 PM 47.3 °F - 29.7 °F 50% 30.29 in 10.0 mi NNW 9.2 mph - N/A   Clear
5:15 PM 46.8 °F - 30.6 °F 53% 30.29 in 10.0 mi NNW 9.2 mph - N/A   Clear
5:35 PM 46.4 °F 42.4 °F 31.6 °F 56% 30.29 in 10.0 mi NNW 8.1 mph - N/A   Clear
5:55 PM 45.9 °F 41.2 °F 31.8 °F 58% 30.29 in 10.0 mi NW 9.2 mph - N/A   Clear
6:15 PM 45.1 °F 40.3 °F 31.8 °F 60% 30.29 in 10.0 mi NNW 9.2 mph - N/A   Clear
6:35 PM 44.8 °F 40.4 °F 31.8 °F 60% 30.29 in 10.0 mi NNW 8.1 mph - N/A   Clear
6:55 PM 43.9 °F 39.9 °F 32.0 °F 63% 30.30 in 10.0 mi NNW 6.9 mph - N/A   Clear
7:15 PM 43.3 °F 38.1 °F 32.0 °F 64% 30.30 in 10.0 mi NNW 9.2 mph - N/A   Clear
7:35 PM 42.1 °F 37.1 °F 32.2 °F 68% 30.30 in 10.0 mi NNW 8.1 mph - N/A   Clear
7:55 PM 41.0 °F 36.4 °F 32.0 °F 70% 30.31 in 10.0 mi NNW 6.9 mph - N/A   Clear
8:15 PM 39.6 °F 34.0 °F 32.7 °F 76% 30.31 in 10.0 mi NW 8.1 mph - N/A   Clear
8:35 PM 38.3 °F 32.5 °F 32.0 °F 78% 30.31 in 10.0 mi NW 8.1 mph - N/A   Clear
8:55 PM 38.5 °F 32.7 °F 32.0 °F 78% 30.31 in 10.0 mi NNW 8.1 mph - N/A   Clear
9:15 PM 38.3 °F 32.5 °F 31.5 °F 76% 30.32 in 10.0 mi NNW 8.1 mph - N/A   Clear
9:35 PM 37.9 °F 32.7 °F 31.1 °F 76% 30.32 in 10.0 mi NNW 6.9 mph - N/A   Clear
9:55 PM 38.3 °F 33.2 °F 30.9 °F 75% 30.32 in 10.0 mi NNW 6.9 mph - N/A   Clear
10:15 PM 36.9 °F 30.1 °F 30.7 °F 79% 30.33 in 10.0 mi NNW 9.2 mph - N/A   Clear
10:35 PM 36.9 °F 30.1 °F 30.7 °F 79% 30.33 in 10.0 mi NW 9.2 mph - N/A   Clear
10:55 PM 35.6 °F 29.2 °F 30.2 °F 81% 30.33 in 10.0 mi NW 8.1 mph - N/A   Clear
11:15 PM 35.2 °F 27.6 °F 30.9 °F 84% 30.33 in 10.0 mi NW 10.4 mph - N/A   Clear
11:35 PM 36.0 °F 28.0 °F 30.9 °F 82% 30.33 in 10.0 mi NW 11.5 mph - N/A   Clear
11:55 PM 36.0 °F 28.0 °F 30.7 °F 81% 30.33 in 10.0 mi NW 11.5 mph - N/A   Clear